Total_Precipitation_Accumulation
0.00 0.00 0.00 0.00 0.00 0.00 0.01 0.03 0.06 0.12 0.20 0.22 0.23 0.27 0.31 0.32 0.56 1.15 0.76 0.39 0.28 0.13 0.09 0.07 0.06 0.06 0.06 0.07 0.09 0.10 0.10 0.10 0.09 0.08 0.07 0.07 0.08 0.08 0.08 0.08 0.09 0.13 0.15 0.14 0.13 0.13 0.12 0.10 0.09
0.00 0.00 0.00 0.00 0.00 0.00 0.01 0.04 0.08 0.12 0.15 0.15 0.19 0.22 0.23 0.31 0.36 0.37 0.37 0.30 0.23 0.14 0.11 0.08 0.07 0.06 0.06 0.06 0.08 0.10 0.10 0.09 0.09 0.08 0.07 0.07 0.08 0.08 0.09 0.10 0.12 0.17 0.20 0.18 0.14 0.11 0.08 0.07 0.07
0.00 0.00 0.00 0.00 0.00 0.00 0.03 0.08 0.11 0.14 0.18 0.20 0.25 0.35 0.41 0.39 0.39 0.30 0.26 0.21 0.17 0.12 0.11 0.10 0.09 0.07 0.07 0.06 0.06 0.09 0.10 0.09 0.09 0.08 0.08 0.09 0.09 0.09 0.11 0.16 0.19 0.20 0.21 0.22 0.19 0.14 0.10 0.07 0.07
0.00 0.00 0.00 0.00 0.00 0.00 0.03 0.09 0.14 0.16 0.18 0.18 0.22 0.44 0.56 0.36 0.41 0.32 0.26 0.20 0.14 0.11 0.09 0.09 0.10 0.09 0.09 0.09 0.09 0.10 0.12 0.11 0.12 0.11 0.12 0.12 0.12 0.12 0.16 0.24 0.29 0.28 0.25 0.27 0.26 0.21 0.15 0.09 0.08
0.00 0.00 0.00 0.00 0.00 0.01 0.01 0.06 0.13 0.15 0.18 0.17 0.17 0.41 0.67 0.57 0.47 0.39 0.28 0.17 0.13 0.13 0.13 0.11 0.13 0.14 0.13 0.14 0.13 0.15 0.15 0.17 0.19 0.18 0.17 0.17 0.17 0.18 0.24 0.31 0.33 0.32 0.30 0.30 0.26 0.19 0.13 0.10 0.11
0.00 0.00 0.00 0.00 0.00 0.01 0.03 0.05 0.08 0.13 0.16 0.23 0.26 0.47 0.87 0.86 0.55 0.35 0.31 0.27 0.19 0.17 0.13 0.13 0.16 0.18 0.18 0.19 0.18 0.19 0.21 0.22 0.22 0.22 0.22 0.20 0.19 0.22 0.27 0.32 0.34 0.34 0.30 0.25 0.20 0.17 0.15 0.15 0.15
0.00 0.00 0.00 0.00 0.01 0.03 0.05 0.07 0.09 0.12 0.17 0.25 0.36 0.62 0.90 0.84 0.61 0.47 0.45 0.38 0.28 0.25 0.24 0.23 0.25 0.24 0.25 0.30 0.31 0.30 0.30 0.29 0.26 0.24 0.22 0.20 0.22 0.25 0.29 0.34 0.39 0.37 0.28 0.23 0.20 0.18 0.16 0.15 0.15
0.00 0.00 0.00 0.00 0.01 0.03 0.07 0.08 0.10 0.14 0.29 0.35 0.36 0.59 0.96 1.05 0.80 0.75 0.73 0.65 0.56 0.52 0.53 0.51 0.48 0.42 0.38 0.36 0.38 0.40 0.39 0.37 0.33 0.27 0.23 0.24 0.28 0.31 0.36 0.34 0.37 0.35 0.30 0.25 0.23 0.19 0.16 0.15 0.15
0.00 0.00 0.00 0.00 0.02 0.04 0.07 0.09 0.11 0.12 0.21 0.44 0.42 0.51 0.84 1.02 0.98 0.98 0.98 0.90 0.96 0.97 0.99 0.88 0.77 0.65 0.67 0.61 0.48 0.50 0.50 0.48 0.42 0.36 0.32 0.35 0.43 0.50 0.55 0.47 0.50 0.44 0.38 0.34 0.33 0.27 0.24 0.22 0.20
0.00 0.00 0.00 0.00 0.01 0.03 0.05 0.08 0.10 0.14 0.20 0.44 0.50 0.55 0.74 0.93 1.22 1.30 1.18 1.09 1.19 1.37 1.25 1.07 1.07 1.02 0.96 0.83 0.74 0.74 0.64 0.60 0.55 0.61 0.52 0.59 0.85 0.96 0.86 0.83 0.69 0.65 0.58 0.51 0.49 0.45 0.36 0.30 0.30
0.00 0.00 0.00 0.01 0.02 0.03 0.04 0.07 0.09 0.15 0.36 0.61 0.72 0.78 0.89 1.14 1.33 1.47 1.43 1.35 1.46 1.47 1.28 1.26 1.37 1.31 1.34 1.30 1.24 1.13 1.05 0.99 0.88 0.96 0.92 0.98 0.99 0.97 1.03 1.06 0.93 0.85 0.81 0.82 0.81 0.63 0.53 0.53 0.57
0.00 0.00 0.01 0.03 0.05 0.06 0.05 0.06 0.09 0.15 0.37 0.65 0.79 1.02 1.24 1.46 1.53 1.66 1.78 1.73 1.88 1.82 1.58 1.47 1.35 1.43 1.61 1.58 1.53 1.52 1.49 1.46 1.38 1.34 1.19 1.27 1.34 1.37 1.33 1.41 1.39 1.39 1.32 1.26 1.17 1.04 0.92 0.86 0.87
0.00 0.01 0.02 0.04 0.08 0.07 0.06 0.08 0.09 0.14 0.32 0.47 0.67 0.89 0.98 1.14 1.51 2.00 2.05 2.14 2.29 2.27 2.07 1.80 1.73 1.69 1.72 1.80 1.80 1.56 1.60 1.67 1.79 1.75 1.54 1.56 1.55 1.60 1.75 1.78 1.84 1.75 1.84 1.76 1.58 1.36 1.26 1.18 1.04
0.00 0.01 0.02 0.05 0.07 0.10 0.12 0.14 0.14 0.21 0.35 0.43 0.51 0.67 0.91 0.97 1.24 1.74 2.13 2.32 2.40 2.44 2.34 2.13 1.97 1.92 1.82 1.98 2.13 1.98 1.83 1.86 1.87 1.94 1.82 1.81 1.83 1.89 1.98 2.03 2.08 1.94 1.93 1.97 1.87 1.61 1.48 1.42 1.29
0.01 0.02 0.04 0.06 0.07 0.09 0.10 0.18 0.21 0.22 0.34 0.48 0.50 0.58 0.88 1.18 1.35 1.81 2.17 2.37 2.61 2.56 2.34 2.34 2.20 2.30 2.36 2.51 2.52 2.52 2.44 2.41 2.34 2.26 2.27 2.20 2.17 2.19 2.15 2.33 2.40 2.23 2.16 2.14 2.07 1.96 1.74 1.67 1.61
0.01 0.03 0.05 0.06 0.06 0.05 0.06 0.23 0.29 0.28 0.35 0.46 0.54 0.64 0.90 1.16 1.41 1.73 2.06 2.15 2.43 2.42 2.44 2.51 2.41 2.48 2.64 2.59 2.47 2.51 2.72 2.72 2.65 2.58 2.61 2.49 2.47 2.52 2.60 2.55 2.45 2.37 2.33 2.34 2.41 2.26 2.04 1.94 2.02
0.01 0.02 0.03 0.04 0.05 0.06 0.06 0.22 0.28 0.30 0.42 0.51 0.57 0.64 0.73 0.88 1.15 1.50 1.96 2.19 2.29 2.32 2.24 2.36 2.51 2.44 2.59 2.62 2.58 2.62 2.86 3.00 3.02 3.00 2.90 2.80 2.78 2.81 2.95 2.99 2.81 2.60 2.52 2.53 2.41 2.41 2.31 2.29 2.26
0.01 0.01 0.01 0.02 0.04 0.05 0.08 0.19 0.33 0.36 0.48 0.55 0.63 0.58 0.69 0.86 1.18 1.51 1.93 2.19 2.20 2.26 2.26 2.30 2.55 2.51 2.67 2.78 2.66 2.73 2.76 2.86 2.98 3.12 3.21 3.34 3.38 3.36 3.35 3.24 3.06 2.90 2.78 2.75 2.66 2.62 2.59 2.43 2.27
0.00 0.01 0.01 0.02 0.03 0.07 0.13 0.21 0.35 0.44 0.53 0.61 0.70 0.68 0.87 0.93 1.14 1.54 1.91 2.17 2.45 2.39 2.41 2.33 2.36 2.53 2.60 2.73 2.86 3.10 3.08 3.06 3.32 3.58 3.72 3.92 3.99 3.82 3.77 3.66 3.48 3.29 3.08 2.93 2.78 2.66 2.56 2.37 2.18
0.00 0.01 0.02 0.05 0.08 0.11 0.19 0.34 0.48 0.56 0.56 0.69 0.84 0.86 1.15 1.29 1.33 1.49 1.83 2.18 2.42 2.46 2.45 2.50 2.66 2.69 2.78 3.11 3.57 3.97 4.26 4.40 4.49 4.69 4.70 4.60 4.45 4.32 4.19 4.07 3.85 3.59 3.36 3.12 2.91 2.68 2.48 2.29 2.12
0.01 0.01 0.03 0.06 0.13 0.19 0.28 0.56 0.65 0.62 0.64 0.79 0.96 1.02 1.19 1.37 1.51 1.41 1.47 1.68 2.02 2.26 2.43 2.52 2.80 3.14 3.48 3.95 4.48 4.88 5.23 5.43 5.31 5.13 5.01 4.79 4.58 4.38 4.07 3.84 3.76 3.54 3.20 2.97 2.79 2.59 2.40 2.19 2.03
0.01 0.01 0.03 0.05 0.11 0.26 0.30 0.58 0.71 0.69 0.78 0.87 0.94 0.95 1.06 1.09 1.20 1.31 1.35 1.46 1.74 1.98 2.24 2.57 2.87 3.42 4.16 4.81 5.35 5.80 5.98 5.95 5.79 5.52 5.14 4.74 4.41 4.08 3.78 3.51 3.24 3.00 2.73 2.50 2.34 2.24 2.18 2.08 1.95
0.01 0.01 0.02 0.06 0.08 0.19 0.25 0.50 0.78 0.83 0.88 0.96 1.06 1.02 1.03 1.08 1.09 1.14 1.22 1.35 1.60 1.81 2.10 2.48 2.92 3.58 4.22 4.84 5.40 5.82 6.00 5.88 5.60 5.14 4.64 4.15 3.69 3.32 3.03 2.77 2.49 2.25 2.06 1.90 1.73 1.68 1.80 1.88 1.87
0.00 0.02 0.04 0.08 0.12 0.24 0.21 0.39 0.83 1.06 1.14 1.27 1.24 1.30 1.33 1.20 1.15 1.14 1.13 1.18 1.32 1.58 1.89 2.26 2.69 3.22 3.72 4.11 4.63 4.95 5.10 5.02 4.69 4.19 3.60 3.16 2.85 2.56 2.30 2.06 1.86 1.67 1.51 1.40 1.33 1.31 1.36 1.47 1.54
0.00 0.03 0.11 0.19 0.22 0.26 0.22 0.44 0.96 1.25 1.28 1.37 1.33 1.41 1.44 1.28 1.19 1.13 1.10 1.08 1.17 1.39 1.71 1.94 2.16 2.56 2.84 3.18 3.57 3.78 3.78 3.62 3.40 3.15 2.86 2.47 2.11 1.82 1.61 1.43 1.29 1.16 1.09 1.05 1.01 1.03 1.09 1.13 1.17
0.01 0.02 0.15 0.32 0.31 0.35 0.45 0.80 1.24 1.28 1.17 1.20 1.25 1.24 1.21 1.08 1.05 1.11 1.15 1.14 1.21 1.25 1.40 1.56 1.67 1.85 1.98 2.12 2.31 2.34 2.31 2.24 2.21 2.06 1.86 1.61 1.34 1.08 0.96 0.88 0.82 0.79 0.78 0.75 0.73 0.77 0.83 0.88 0.89
0.01 0.04 0.08 0.14 0.20 0.37 0.73 1.21 1.53 1.41 1.31 1.21 1.10 0.95 1.01 0.98 0.96 1.01 1.04 1.10 1.15 1.15 1.13 1.14 1.13 1.16 1.17 1.19 1.30 1.36 1.34 1.32 1.27 1.17 1.05 0.94 0.84 0.74 0.66 0.61 0.60 0.57 0.58 0.57 0.55 0.54 0.55 0.62 0.69
0.03 0.05 0.07 0.13 0.34 0.52 0.79 1.23 1.68 1.79 1.74 1.66 1.38 1.08 1.05 1.02 0.99 0.90 0.83 0.88 0.94 0.91 0.86 0.81 0.81 0.81 0.75 0.70 0.72 0.76 0.80 0.77 0.73 0.69 0.65 0.60 0.56 0.51 0.46 0.41 0.37 0.35 0.35 0.38 0.42 0.43 0.40 0.42 0.46
0.05 0.06 0.08 0.15 0.25 0.50 0.93 1.44 1.58 1.85 1.87 1.73 1.45 1.21 1.17 1.12 1.04 0.98 0.96 0.86 0.82 0.81 0.78 0.73 0.70 0.66 0.63 0.60 0.60 0.55 0.52 0.49 0.44 0.42 0.40 0.37 0.35 0.33 0.31 0.28 0.25 0.24 0.24 0.26 0.31 0.34 0.35 0.37 0.38
0.08 0.08 0.10 0.22 0.25 0.33 0.78 1.55 1.69 1.88 1.91 1.77 1.72 1.53 1.33 1.23 1.12 1.05 1.01 0.88 0.79 0.74 0.73 0.72 0.65 0.57 0.54 0.50 0.46 0.42 0.39 0.36 0.34 0.32 0.30 0.26 0.25 0.24 0.23 0.23 0.22 0.19 0.20 0.24 0.28 0.28 0.29 0.33 0.36